User: anonymous   Login
Location: Unspecified
(0.0000°N, 0.0000°E)
Time: 07:52:29
(UTC+00:00)
Language:

SWISSCUBE - Orbit

View from above orbital plane
View from above orbital plane
View from above satellite
View from above satellite

Ground track
Ground track

The orbit data is extracted from the following two-line orbital elements,

1 35932U 09051B   17324.33513655  .00000214  00000-0  59499-4 0  9992
2 35932  98.5175 105.8484 0008629 127.3859 232.8125 14.56087408433049
Epoch (UTC): 20 November 2017 08:02:35
Eccentricity: 0.0008629
inclination: 98.5175°
perigee height: 700 km
apogee height: 712 km
right ascension of ascending node: 105.8484°
argument of perigee: 127.3859°
revolutions per day: 14.56087408
mean anomaly at epoch: 232.8125°
orbit number at epoch: 43304

The dashed part of the orbit path shows where the satellite is in the earth's shadow,  

DLR